Temperatura - Umidità - Pioggia orarie del 22-10-2021

Intensità - Direzione vento orarie del 22-10-2021

Dati orari da stazione meteo del 22-10-2021

Nome Stazione Data Ora Temperatura [°C] Umidità [%] Pioggia [mm] Intensità vento[km/h] Direzione vento [°]
Savigliano 21-10-2021 02:00 9.4 86.5 0 0 195
Savigliano 21-10-2021 03:00 9.9 85 0 0 146
Savigliano 21-10-2021 04:00 9.9 85.1 0 0 186
Savigliano 21-10-2021 05:00 9.4 85.6 0 0 189
Savigliano 21-10-2021 06:00 7.4 88.4 0 0 132
Savigliano 21-10-2021 07:00 6.8 91.2 0 0 63
Savigliano 21-10-2021 08:00 7 90.3 0 0 162
Savigliano 21-10-2021 09:00 7.1 90.1 0 0 160
Savigliano 21-10-2021 10:00 7.9 90.4 0 0 173
Savigliano 21-10-2021 11:00 11.3 86.7 0 0 165
Savigliano 21-10-2021 12:00 12.7 78.8 0 0 111
Savigliano 21-10-2021 13:00 14.7 75 0 0 161
Savigliano 21-10-2021 14:00 14.8 74.3 0 0 126
Savigliano 21-10-2021 15:00 14.9 73.6 0 0 87
Savigliano 21-10-2021 16:00 17.1 67.4 0 0 248
Savigliano 21-10-2021 17:00 15.6 66.5 0 0 100
Savigliano 21-10-2021 18:00 14.5 73.1 0 0 128
Savigliano 21-10-2021 19:00 14.3 77.5 0 0 64
Savigliano 21-10-2021 20:00 12.2 81.6 0 0 82
Savigliano 21-10-2021 21:00 12.3 86.4 0 0 95
Savigliano 21-10-2021 22:00 12.1 85.6 0 0 133
Savigliano 21-10-2021 23:00 12 86.5 0 0 177
Savigliano 22-10-2021 00:00 10.5 86.2 0 0 165
Savigliano 22-10-2021 01:00 9.4 88 0 0 164
Savigliano 22-10-2021 02:00 8.6 90.9 0 0 166
Savigliano 22-10-2021 03:00 7.2 91.3 0 0 166
Savigliano 22-10-2021 04:00 6.8 89.8 0 0 166
Savigliano 22-10-2021 05:00 7.3 90.5 0 0 177
Savigliano 22-10-2021 06:00 7 90.4 0 0 211
Savigliano 22-10-2021 07:00 7.1 90.4 0 0 178
Savigliano 21-10-2021 02:20 0 0 0 0 228
Savigliano 21-10-2021 10:40 0 0 0 0 154
Savigliano 22-10-2021 02:20 0 0 0 0 132
Savigliano 22-10-2021 08:00 0 0 0 0 138

Riassuntivo giornaliero del 22-10-2021